| time (UTC) | temp F | wind direction | speed MPH | gust MPH | rain 1hr in | rain 24hr in | rain mn in | humidity % | barometer mb |
| 20260505221754 | 77 | 223 | 5.0 | 13.0 | 0.00 | 0.00 | 0.00 | 27 | 1012.7 |
| 20260505221251 | 78 | 249 | 5.0 | 14.0 | 0.00 | 0.00 | 0.00 | 28 | 1013.0 |
| 20260505220747 | 78 | 218 | 13.0 | 15.0 | 0.00 | 0.00 | 0.00 | 26 | 1012.8 |
| 20260505220245 | 78 | 249 | 14.0 | 16.0 | 0.00 | 0.00 | 0.00 | 28 | 1012.8 |
| 20260505215743 | 77 | 228 | 4.0 | 20.0 | 0.00 | 0.00 | 0.00 | 30 | 1013.0 |
| 20260505215240 | 78 | 221 | 6.0 | 19.0 | 0.00 | 0.00 | 0.00 | 29 | 1012.8 |
| 20260505214738 | 77 | 264 | 4.0 | 9.0 | 0.00 | 0.00 | 0.00 | 26 | 1013.0 |
| 20260505214235 | 76 | 222 | 8.0 | 14.0 | 0.00 | 0.00 | 0.00 | 28 | 1013.2 |
| 20260505213732 | 77 | 225 | 7.0 | 16.0 | 0.00 | 0.00 | 0.00 | 27 | 1013.1 |
| 20260505213229 | 79 | 282 | 3.0 | 8.0 | 0.00 | 0.00 | 0.00 | 27 | 1013.1 |
| 20260505212725 | 77 | 240 | 5.0 | 14.0 | 0.00 | 0.00 | 0.00 | 28 | 1012.8 |
| 20260505212223 | 77 | 334 | 4.0 | 8.0 | 0.00 | 0.00 | 0.00 | 28 | 1013.1 |
| 20260505211720 | 77 | 274 | 7.0 | 14.0 | 0.00 | 0.00 | 0.00 | 28 | 1013.2 |
| 20260505211217 | 77 | 260 | 3.0 | 12.0 | 0.00 | 0.00 | 0.00 | 30 | 1013.3 |
| 20260505210713 | 77 | 306 | 1.0 | 8.0 | 0.00 | 0.00 | 0.00 | 29 | 1013.3 |
| 20260505210210 | 76 | 266 | 6.0 | 12.0 | 0.00 | 0.00 | 0.00 | 29 | 1013.5 |
| 20260505205708 | 77 | 303 | 2.0 | 11.0 | 0.00 | 0.00 | 0.00 | 32 | 1013.8 |
| 20260505205206 | 77 | 247 | 8.0 | 17.0 | 0.00 | 0.00 | 0.00 | 29 | 1013.7 |
| 20260505204702 | 76 | 248 | 8.0 | 12.0 | 0.00 | 0.00 | 0.00 | 29 | 1013.7 |
| 20260505204200 | 77 | 257 | 5.0 | 9.0 | 0.00 | 0.00 | 0.00 | 28 | 1013.7 |
| 20260505203657 | 77 | 203 | 3.0 | 8.0 | 0.00 | 0.00 | 0.00 | 30 | 1013.7 |
| 20260505203154 | 77 | 225 | 9.0 | 18.0 | 0.00 | 0.00 | 0.00 | 30 | 1013.6 |
| 20260505202649 | 76 | 177 | 3.0 | 11.0 | 0.00 | 0.00 | 0.00 | 30 | 1013.7 |
| 20260505202146 | 75 | 230 | 3.0 | 12.0 | 0.00 | 0.00 | 0.00 | 33 | 1013.6 |
| 20260505201642 | 74 | 247 | 4.0 | 16.0 | 0.00 | 0.00 | 0.00 | 34 | 1013.8 |
| 20260505201141 | 74 | 247 | 5.0 | 12.0 | 0.00 | 0.00 | 0.00 | 34 | 1013.8 |
| 20260505200638 | 76 | 199 | 5.0 | 9.0 | 0.00 | 0.00 | 0.00 | 33 | 1013.8 |
| 20260505200135 | 76 | 267 | 7.0 | 14.0 | 0.00 | 0.00 | 0.00 | 32 | 1014.1 |
| 20260505195631 | 76 | 240 | 7.0 | 16.0 | 0.00 | 0.00 | 0.00 | 34 | 1014.0 |
| 20260505195128 | 75 | 271 | 2.0 | 9.0 | 0.00 | 0.00 | 0.00 | 36 | 1013.9 |
| 20260505194625 | 74 | 309 | 4.0 | 13.0 | 0.00 | 0.00 | 0.00 | 36 | 1014.1 |
| 20260505194121 | 76 | 309 | 4.0 | 12.0 | 0.00 | 0.00 | 0.00 | 35 | 1013.9 |
| 20260505193613 | 75 | 198 | 3.0 | 8.0 | 0.00 | 0.00 | 0.00 | 38 | 1013.9 |
| 20260505193110 | 75 | 127 | 2.0 | 4.0 | 0.00 | 0.00 | 0.00 | 35 | 1013.9 |
| 20260505192609 | 76 | 215 | 5.0 | 15.0 | 0.00 | 0.00 | 0.00 | 36 | 1014.3 |
| 20260505192106 | 76 | 254 | 6.0 | 12.0 | 0.00 | 0.00 | 0.00 | 35 | 1014.1 |
| 20260505191604 | 75 | 233 | 5.0 | 12.0 | 0.00 | 0.00 | 0.00 | 38 | 1014.2 |
| 20260505191102 | 75 | 166 | 3.0 | 11.0 | 0.00 | 0.00 | 0.00 | 41 | 1014.1 |
| 20260505190601 | 75 | 222 | 3.0 | 8.0 | 0.00 | 0.00 | 0.00 | 39 | 1014.3 |
| 20260505190057 | 75 | 249 | 5.0 | 11.0 | 0.00 | 0.00 | 0.00 | 37 | 1014.3 |
| 20260505185555 | 75 | 213 | 5.0 | 7.0 | 0.00 | 0.00 | 0.00 | 39 | 1014.4 |
| 20260505185051 | 75 | 233 | 5.0 | 15.0 | 0.00 | 0.00 | 0.00 | 38 | 1014.4 |
| 20260505184542 | 73 | 233 | 3.0 | 11.0 | 0.00 | 0.00 | 0.00 | 40 | 1014.4 |
| 20260505184039 | 74 | 274 | 8.0 | 14.0 | 0.00 | 0.00 | 0.00 | 40 | 1014.5 |
| 20260505183536 | 74 | 303 | 4.0 | 7.0 | 0.00 | 0.00 | 0.00 | 41 | 1014.4 |
| 20260505183034 | 74 | 190 | 5.0 | 12.0 | 0.00 | 0.00 | 0.00 | 40 | 1014.7 |
| 20260505182530 | 74 | 243 | 6.0 | 15.0 | 0.00 | 0.00 | 0.00 | 40 | 1014.6 |
| 20260505182026 | 74 | 272 | 8.0 | 11.0 | 0.00 | 0.00 | 0.00 | 39 | 1014.6 |
| 20260505181523 | 75 | 247 | 5.0 | 11.0 | 0.00 | 0.00 | 0.00 | 38 | 1014.4 |
| 20260505181021 | 73 | 255 | 7.0 | 13.0 | 0.00 | 0.00 | 0.00 | 41 | 1014.4 |
| 20260505180516 | 74 | 268 | 6.0 | 8.0 | 0.00 | 0.00 | 0.00 | 40 | 1014.6 |
| 20260505180015 | 74 | 204 | 3.0 | 8.0 | 0.00 | 0.00 | 0.00 | 41 | 1014.7 |
| 20260505175509 | 73 | 231 | 4.0 | 5.0 | 0.00 | 0.00 | 0.00 | 43 | 1014.4 |
| 20260505175006 | 73 | 259 | 7.0 | 7.0 | 0.00 | 0.00 | 0.00 | 43 | 1014.6 |
| 20260505174503 | 73 | 153 | 4.0 | 14.0 | 0.00 | 0.00 | 0.00 | 44 | 1014.5 |
| 20260505173959 | 74 | 150 | 2.0 | 7.0 | 0.00 | 0.00 | 0.00 | 46 | 1014.7 |
| 20260505173455 | 73 | 183 | 3.0 | 8.0 | 0.00 | 0.00 | 0.00 | 43 | 1014.8 |
| 20260505172953 | 74 | 202 | 2.0 | 21.0 | 0.00 | 0.00 | 0.00 | 45 | 1014.6 |
| 20260505172451 | 73 | 209 | 6.0 | 9.0 | 0.00 | 0.00 | 0.00 | 46 | 1014.8 |
| 20260505171951 | 71 | 265 | 4.0 | 8.0 | 0.00 | 0.00 | 0.00 | 48 | 1014.7 |
| 20260505171447 | 71 | 231 | 6.0 | 14.0 | 0.00 | 0.00 | 0.00 | 48 | 1014.7 |
| 20260505170944 | 71 | 193 | 4.0 | 8.0 | 0.00 | 0.00 | 0.00 | 48 | 1014.7 |
| 20260505170441 | 70 | 231 | 4.0 | 6.0 | 0.00 | 0.00 | 0.00 | 50 | 1014.6 |
| 20260505165936 | 70 | 262 | 6.0 | 9.0 | 0.00 | 0.00 | 0.00 | 50 | 1014.9 |
| 20260505165432 | 71 | 228 | 3.0 | 9.0 | 0.00 | 0.00 | 0.00 | 49 | 1014.8 |
| 20260505164927 | 70 | 239 | 4.0 | 9.0 | 0.00 | 0.00 | 0.00 | 51 | 1014.8 |
| 20260505164424 | 70 | 258 | 4.0 | 6.0 | 0.00 | 0.00 | 0.00 | 51 | 1014.7 |
| 20260505163922 | 71 | 252 | 5.0 | 10.0 | 0.00 | 0.00 | 0.00 | 50 | 1014.7 |
| 20260505163421 | 71 | 225 | 3.0 | 6.0 | 0.00 | 0.00 | 0.00 | 50 | 1014.5 |
| 20260505162919 | 70 | 151 | 0.0 | 5.0 | 0.00 | 0.00 | 0.00 | 51 | 1014.7 |
| 20260505162415 | 69 | 238 | 3.0 | 7.0 | 0.00 | 0.00 | 0.00 | 53 | 1014.8 |
| 20260505161912 | 70 | 202 | 3.0 | 6.0 | 0.00 | 0.00 | 0.00 | 52 | 1014.9 |
| 20260505161409 | 71 | 223 | 3.0 | 6.0 | 0.00 | 0.00 | 0.00 | 53 | 1014.8 |
| 20260505160907 | 71 | 237 | 7.0 | 10.0 | 0.00 | 0.00 | 0.00 | 52 | 1014.8 |
| 20260505160404 | 70 | 258 | 5.0 | 7.0 | 0.00 | 0.00 | 0.00 | 53 | 1014.9 |
| 20260505153343 | 68 | 217 | 3.0 | 6.0 | 0.00 | 0.00 | 0.00 | 55 | 1014.9 |
| 20260505152840 | 68 | 224 | 3.0 | 5.0 | 0.00 | 0.00 | 0.00 | 54 | 1014.9 |
| 20260505152337 | 69 | 199 | 3.0 | 5.0 | 0.00 | 0.00 | 0.00 | 54 | 1014.7 |
| 20260505151831 | 69 | 195 | 2.0 | 3.0 | 0.00 | 0.00 | 0.00 | 54 | 1014.7 |
| 20260505151328 | 68 | 193 | 0.0 | 4.0 | 0.00 | 0.00 | 0.00 | 56 | 1014.5 |
| 20260505150825 | 67 | 122 | 0.0 | 3.0 | 0.00 | 0.00 | 0.00 | 57 | 1014.8 |
| 20260505150322 | 67 | 245 | 3.0 | 4.0 | 0.00 | 0.00 | 0.00 | 57 | 1014.7 |
| 20260505140246 | 66 | 196 | 2.0 | 3.0 | 0.00 | 0.00 | 0.00 | 65 | 1014.5 |
| 20260505130210 | 64 | 161 | 2.0 | 6.0 | 0.00 | 0.00 | 0.00 | 70 | 1014.1 |
| 20260505124700 | 64 | 165 | 1.0 | 3.0 | 0.00 | 0.00 | 0.00 | 70 | 1013.8 |
| 20260505124157 | 64 | 173 | 2.0 | 5.0 | 0.00 | 0.00 | 0.00 | 70 | 1014.0 |
| 20260505123653 | 64 | 175 | 1.0 | 4.0 | 0.00 | 0.00 | 0.00 | 70 | 1014.0 |
| 20260505123150 | 64 | 185 | 0.0 | 7.0 | 0.00 | 0.00 | 0.00 | 69 | 1013.8 |
| 20260505122646 | 64 | 163 | 3.0 | 6.0 | 0.00 | 0.00 | 0.00 | 69 | 1013.8 |
| 20260505122143 | 64 | 191 | 2.0 | 4.0 | 0.00 | 0.00 | 0.00 | 68 | 1013.6 |
| 20260505121640 | 64 | 181 | 2.0 | 5.0 | 0.00 | 0.00 | 0.00 | 68 | 1014.0 |
| 20260505121137 | 64 | 188 | 2.0 | 6.0 | 0.00 | 0.00 | 0.00 | 68 | 1013.7 |
| 20260505120627 | 64 | 198 | 0.0 | 5.0 | 0.00 | 0.00 | 0.00 | 68 | 1013.7 |
| 20260505120123 | 64 | 175 | 0.0 | 4.0 | 0.00 | 0.00 | 0.00 | 68 | 1013.5 |
| 20260505115617 | 64 | 168 | 1.0 | 6.0 | 0.00 | 0.00 | 0.00 | 68 | 1013.4 |
| 20260505115115 | 64 | 170 | 1.0 | 6.0 | 0.00 | 0.00 | 0.00 | 68 | 1013.5 |
| 20260505114612 | 64 | 180 | 2.0 | 5.0 | 0.00 | 0.00 | 0.00 | 68 | 1014.0 |
| 20260505114108 | 64 | 156 | 2.0 | 4.0 | 0.00 | 0.00 | 0.00 | 67 | 1013.7 |
| 20260505113605 | 64 | 140 | 2.0 | 3.0 | 0.00 | 0.00 | 0.00 | 66 | 1013.7 |
| 20260505113101 | 64 | 138 | 3.0 | 7.0 | 0.00 | 0.00 | 0.00 | 64 | 1013.7 |
| 20260505112557 | 64 | 177 | 0.0 | 3.0 | 0.00 | 0.00 | 0.00 | 64 | 1013.5 |
| 20260505112056 | 64 | 121 | 2.0 | 5.0 | 0.00 | 0.00 | 0.00 | 63 | 1013.4 |
| 20260505111555 | 65 | 148 | 3.0 | 4.0 | 0.00 | 0.00 | 0.00 | 63 | 1013.5 |
| 20260505111051 | 65 | 143 | 2.0 | 8.0 | 0.00 | 0.00 | 0.00 | 62 | 1013.3 |
| 20260505110548 | 65 | 131 | 3.0 | 6.0 | 0.00 | 0.00 | 0.00 | 62 | 1013.7 |
| 20260505102020 | 66 | 141 | 5.0 | 8.0 | 0.00 | 0.00 | 0.00 | 59 | 1014.5 |
| 20260505101519 | 66 | 135 | 6.0 | 7.0 | 0.00 | 0.00 | 0.00 | 58 | 1014.4 |
| 20260505101015 | 66 | 174 | 2.0 | 5.0 | 0.00 | 0.00 | 0.00 | 58 | 1014.2 |
| 20260505100507 | 66 | 149 | 1.0 | 6.0 | 0.00 | 0.00 | 0.00 | 58 | 1014.2 |
| 20260505100004 | 66 | 162 | 1.0 | 8.0 | 0.00 | 0.00 | 0.00 | 58 | 1014.2 |
| 20260505095500 | 66 | 189 | 2.0 | 6.0 | 0.00 | 0.00 | 0.00 | 59 | 1014.3 |
| 20260505094956 | 66 | 174 | 1.0 | 7.0 | 0.00 | 0.00 | 0.00 | 59 | 1014.4 |
| 20260505094453 | 66 | 185 | 1.0 | 5.0 | 0.00 | 0.00 | 0.00 | 59 | 1014.5 |
| 20260505093949 | 66 | 212 | 5.0 | 7.0 | 0.00 | 0.00 | 0.00 | 59 | 1014.2 |
| 20260505093446 | 66 | 207 | 2.0 | 8.0 | 0.00 | 0.00 | 0.00 | 59 | 1014.5 |
| 20260505092943 | 66 | 163 | 3.0 | 6.0 | 0.00 | 0.00 | 0.00 | 58 | 1014.7 |
| 20260505092441 | 66 | 154 | 2.0 | 7.0 | 0.00 | 0.00 | 0.00 | 59 | 1014.4 |
| 20260505091938 | 66 | 142 | 4.0 | 8.0 | 0.00 | 0.00 | 0.00 | 58 | 1014.6 |
| 20260505091436 | 66 | 161 | 5.0 | 8.0 | 0.00 | 0.00 | 0.00 | 58 | 1014.8 |
| 20260505090933 | 66 | 151 | 3.0 | 7.0 | 0.00 | 0.00 | 0.00 | 57 | 1014.6 |
| 20260505090432 | 66 | 163 | 2.0 | 4.0 | 0.00 | 0.00 | 0.00 | 58 | 1014.7 |
| 20260505085928 | 66 | 209 | 0.0 | 10.0 | 0.00 | 0.00 | 0.00 | 58 | 1014.6 |
| 20260505085426 | 66 | 164 | 2.0 | 7.0 | 0.00 | 0.00 | 0.00 | 57 | 1014.7 |
| 20260505084925 | 67 | 127 | 5.0 | 7.0 | 0.00 | 0.00 | 0.00 | 56 | 1014.8 |
| 20260505084422 | 67 | 149 | 1.0 | 6.0 | 0.00 | 0.00 | 0.00 | 56 | 1014.8 |
| 20260505083920 | 67 | 199 | 3.0 | 15.0 | 0.00 | 0.00 | 0.00 | 56 | 1015.1 |
| 20260505083417 | 67 | 205 | 2.0 | 6.0 | 0.00 | 0.00 | 0.00 | 56 | 1015.1 |
| 20260505082913 | 67 | 156 | 4.0 | 15.0 | 0.00 | 0.00 | 0.00 | 55 | 1015.1 |
| 20260505082409 | 68 | 160 | 3.0 | 7.0 | 0.00 | 0.00 | 0.00 | 54 | 1015.3 |
| 20260505081906 | 68 | 191 | 4.0 | 11.0 | 0.00 | 0.00 | 0.00 | 52 | 1015.5 |
| 20260505081403 | 68 | 164 | 3.0 | 10.0 | 0.00 | 0.00 | 0.00 | 51 | 1015.4 |
| 20260505080900 | 68 | 155 | 4.0 | 11.0 | 0.00 | 0.00 | 0.00 | 51 | 1015.1 |
| 20260505080355 | 68 | 180 | 2.0 | 11.0 | 0.00 | 0.00 | 0.00 | 50 | 1015.2 |
| 20260505075851 | 68 | 139 | 4.0 | 7.0 | 0.00 | 0.00 | 0.00 | 49 | 1015.3 |
| 20260505075348 | 68 | 173 | 2.0 | 10.0 | 0.00 | 0.00 | 0.00 | 48 | 1015.0 |
| 20260505074846 | 68 | 158 | 3.0 | 10.0 | 0.00 | 0.00 | 0.00 | 48 | 1015.4 |
| 20260505074343 | 68 | 171 | 3.0 | 10.0 | 0.00 | 0.00 | 0.00 | 47 | 1015.2 |
| 20260505073840 | 68 | 200 | 0.0 | 4.0 | 0.00 | 0.00 | 0.00 | 47 | 1015.1 |
| 20260505073338 | 68 | 204 | 3.0 | 8.0 | 0.00 | 0.00 | 0.00 | 47 | 1014.9 |
| 20260505072834 | 68 | 178 | 3.0 | 7.0 | 0.00 | 0.00 | 0.00 | 47 | 1014.8 |
| 20260505072331 | 69 | 129 | 1.0 | 5.0 | 0.00 | 0.00 | 0.00 | 47 | 1015.0 |
| 20260505071827 | 69 | 230 | 3.0 | 10.0 | 0.00 | 0.00 | 0.00 | 46 | 1014.8 |
| 20260505071323 | 69 | 176 | 2.0 | 7.0 | 0.00 | 0.00 | 0.00 | 46 | 1015.2 |
| 20260505070821 | 69 | 143 | 3.0 | 8.0 | 0.00 | 0.00 | 0.00 | 45 | 1015.2 |
| 20260505070318 | 69 | 115 | 2.0 | 7.0 | 0.00 | 0.00 | 0.00 | 44 | 1015.0 |
| 20260505065813 | 69 | 168 | 3.0 | 10.0 | 0.00 | 0.00 | 0.00 | 43 | 1015.2 |
| 20260505065310 | 69 | 206 | 2.0 | 4.0 | 0.00 | 0.00 | 0.00 | 43 | 1015.4 |
| 20260505064807 | 69 | 200 | 3.0 | 12.0 | 0.00 | 0.00 | 0.00 | 42 | 1014.9 |
| 20260505064304 | 69 | 226 | 3.0 | 8.0 | 0.00 | 0.00 | 0.00 | 41 | 1015.2 |
| 20260505063803 | 70 | 146 | 3.0 | 9.0 | 0.00 | 0.00 | 0.00 | 40 | 1015.1 |
| 20260505063258 | 70 | 146 | 2.0 | 9.0 | 0.00 | 0.00 | 0.00 | 39 | 1015.1 |
| 20260505062755 | 70 | 141 | 5.0 | 9.0 | 0.00 | 0.00 | 0.00 | 38 | 1015.1 |
| 20260505062252 | 70 | 167 | 4.0 | 10.0 | 0.00 | 0.00 | 0.00 | 38 | 1014.7 |
| 20260505061749 | 70 | 153 | 5.0 | 8.0 | 0.00 | 0.00 | 0.00 | 37 | 1014.9 |
| 20260505061247 | 70 | 188 | 2.0 | 10.0 | 0.00 | 0.00 | 0.00 | 38 | 1014.5 |
| 20260505060744 | 70 | 143 | 2.0 | 9.0 | 0.00 | 0.00 | 0.00 | 36 | 1014.5 |
| 20260505060241 | 71 | 141 | 4.0 | 9.0 | 0.00 | 0.00 | 0.00 | 35 | 1014.6 |
| 20260505055736 | 71 | 217 | 1.0 | 6.0 | 0.00 | 0.00 | 0.00 | 35 | 1014.6 |
| 20260505055232 | 71 | 148 | 3.0 | 7.0 | 0.00 | 0.00 | 0.00 | 35 | 1014.6 |
| 20260505054730 | 71 | 139 | 5.0 | 7.0 | 0.00 | 0.00 | 0.00 | 35 | 1014.4 |
| 20260505054227 | 71 | 133 | 3.0 | 7.0 | 0.00 | 0.00 | 0.00 | 36 | 1014.6 |
| 20260505053725 | 71 | 135 | 1.0 | 5.0 | 0.00 | 0.00 | 0.00 | 36 | 1014.6 |
| 20260505053221 | 72 | 152 | 2.0 | 4.0 | 0.00 | 0.00 | 0.00 | 38 | 1014.7 |
| 20260505052719 | 72 | 195 | 2.0 | 7.0 | 0.00 | 0.00 | 0.00 | 37 | 1014.9 |
| 20260505052215 | 72 | 126 | 2.0 | 4.0 | 0.00 | 0.00 | 0.00 | 37 | 1015.1 |
| 20260505051713 | 72 | 193 | 1.0 | 5.0 | 0.00 | 0.00 | 0.00 | 37 | 1015.1 |
| 20260505051211 | 72 | 180 | 1.0 | 3.0 | 0.00 | 0.00 | 0.00 | 37 | 1015.0 |
| 20260505050709 | 72 | 169 | 2.0 | 4.0 | 0.00 | 0.00 | 0.00 | 38 | 1015.3 |
| 20260505050208 | 72 | 129 | 0.0 | 3.0 | 0.00 | 0.00 | 0.00 | 39 | 1014.9 |
| 20260505041642 | 73 | 157 | 0.0 | 3.0 | 0.00 | 0.00 | 0.00 | 44 | 1015.0 |
| 20260505041140 | 74 | 248 | 2.0 | 4.0 | 0.00 | 0.00 | 0.00 | 42 | 1014.7 |
| 20260505040636 | 74 | 203 | 3.0 | 8.0 | 0.00 | 0.00 | 0.00 | 42 | 1014.9 |
| 20260505040134 | 74 | 180 | 0.0 | 5.0 | 0.00 | 0.00 | 0.00 | 43 | 1015.0 |
| 20260505035630 | 74 | 223 | 2.0 | 3.0 | 0.00 | 0.00 | 0.00 | 43 | 1014.8 |
| 20260505035126 | 74 | 204 | 2.0 | 5.0 | 0.00 | 0.00 | 0.00 | 42 | 1014.8 |
| 20260505034623 | 74 | 146 | 2.0 | 2.0 | 0.00 | 0.00 | 0.00 | 43 | 1014.6 |
| 20260505034120 | 73 | 222 | 0.0 | 3.0 | 0.00 | 0.00 | 0.00 | 42 | 1014.5 |
| 20260505033616 | 73 | 142 | 0.0 | 1.0 | 0.00 | 0.00 | 0.00 | 43 | 1014.4 |
| 20260505033115 | 74 | 117 | 0.0 | 2.0 | 0.00 | 0.00 | 0.00 | 42 | 1014.4 |
| 20260505032612 | 74 | 216 | 1.0 | 3.0 | 0.00 | 0.00 | 0.00 | 42 | 1014.5 |
| 20260505032109 | 74 | 158 | 0.0 | 2.0 | 0.00 | 0.00 | 0.00 | 43 | 1014.4 |
| 20260505031606 | 74 | 229 | 2.0 | 3.0 | 0.00 | 0.00 | 0.00 | 41 | 1014.1 |
| 20260505031102 | 74 | 247 | 3.0 | 3.0 | 0.00 | 0.00 | 0.00 | 41 | 1013.8 |
| 20260505030559 | 74 | 169 | 0.0 | 2.0 | 0.00 | 0.00 | 0.00 | 41 | 1014.1 |
| 20260505030055 | 74 | 210 | 0.0 | 3.0 | 0.00 | 0.00 | 0.00 | 41 | 1013.7 |
| 20260505025551 | 75 | 216 | 2.0 | 5.0 | 0.00 | 0.00 | 0.00 | 40 | 1014.0 |
| 20260505025050 | 74 | 194 | 1.0 | 4.0 | 0.00 | 0.00 | 0.00 | 41 | 1013.7 |
| 20260505024547 | 75 | 274 | 2.0 | 4.0 | 0.00 | 0.00 | 0.00 | 40 | 1014.1 |
| 20260505024044 | 74 | 5 | 0.0 | 3.0 | 0.00 | 0.00 | 0.00 | 41 | 1014.0 |
| 20260505023541 | 74 | 339 | 0.0 | 3.0 | 0.00 | 0.00 | 0.00 | 42 | 1013.9 |
| 20260505023039 | 74 | 332 | 1.0 | 2.0 | 0.00 | 0.00 | 0.00 | 41 | 1013.9 |
| 20260505022536 | 74 | 226 | 0.0 | 2.0 | 0.00 | 0.00 | 0.00 | 41 | 1013.8 |
| 20260505022033 | 75 | 218 | 2.0 | 3.0 | 0.00 | 0.00 | 0.00 | 41 | 1014.0 |
| 20260505021529 | 75 | 303 | 1.0 | 5.0 | 0.00 | 0.00 | 0.00 | 41 | 1013.9 |
| 20260505021026 | 75 | 304 | 0.0 | 3.0 | 0.00 | 0.00 | 0.00 | 40 | 1013.8 |
| 20260505020520 | 75 | 198 | 0.0 | 3.0 | 0.00 | 0.00 | 0.00 | 39 | 1013.8 |
| 20260505020018 | 75 | 309 | 3.0 | 6.0 | 0.00 | 0.00 | 0.00 | 38 | 1014.0 |
| 20260505015515 | 76 | 323 | 0.0 | 2.0 | 0.00 | 0.00 | 0.00 | 39 | 1013.7 |
| 20260505015011 | 75 | 232 | 1.0 | 3.0 | 0.00 | 0.00 | 0.00 | 39 | 1013.8 |
| 20260505014508 | 76 | 336 | 0.0 | 2.0 | 0.00 | 0.00 | 0.00 | 38 | 1013.7 |
| 20260505014006 | 76 | 119 | 0.0 | 2.0 | 0.00 | 0.00 | 0.00 | 37 | 1013.4 |
| 20260505013502 | 77 | 242 | 0.0 | 3.0 | 0.00 | 0.00 | 0.00 | 35 | 1013.5 |
| 20260505013000 | 77 | 229 | 0.0 | 2.0 | 0.00 | 0.00 | 0.00 | 35 | 1013.5 |
| 20260505012458 | 77 | 230 | 0.0 | 2.0 | 0.00 | 0.00 | 0.00 | 34 | 1013.5 |
| 20260505011954 | 77 | 236 | 2.0 | 4.0 | 0.00 | 0.00 | 0.00 | 34 | 1013.3 |
| 20260505011450 | 77 | 239 | 2.0 | 6.0 | 0.00 | 0.00 | 0.00 | 34 | 1013.4 |
| 20260505010947 | 77 | 258 | 2.0 | 5.0 | 0.00 | 0.00 | 0.00 | 34 | 1013.3 |
| 20260505010443 | 77 | 251 | 3.0 | 6.0 | 0.00 | 0.00 | 0.00 | 34 | 1013.6 |
| 20260505005939 | 77 | 217 | 0.0 | 2.0 | 0.00 | 0.00 | 0.00 | 35 | 1013.2 |
| 20260505005436 | 77 | 154 | 0.0 | 3.0 | 0.00 | 0.00 | 0.00 | 35 | 1013.4 |
| 20260505004934 | 78 | 339 | 0.0 | 2.0 | 0.00 | 0.00 | 0.00 | 34 | 1013.5 |
| 20260505004430 | 78 | 223 | 1.0 | 4.0 | 0.00 | 0.00 | 0.00 | 34 | 1013.5 |
| 20260505003927 | 78 | 130 | 0.0 | 3.0 | 0.00 | 0.00 | 0.00 | 36 | 1013.6 |
| 20260505003424 | 78 | 204 | 2.0 | 4.0 | 0.00 | 0.00 | 0.00 | 33 | 1013.4 |
| 20260505002920 | 78 | 347 | 0.0 | 3.0 | 0.00 | 0.00 | 0.00 | 36 | 1013.6 |
| 20260505002417 | 78 | 320 | 1.0 | 3.0 | 0.00 | 0.00 | 0.00 | 36 | 1013.4 |
| 20260505001915 | 78 | 300 | 2.0 | 6.0 | 0.00 | 0.00 | 0.00 | 35 | 1013.3 |
| 20260505001413 | 78 | 252 | 3.0 | 5.0 | 0.00 | 0.00 | 0.00 | 36 | 1013.7 |
| 20260505000910 | 78 | 203 | 2.0 | 3.0 | 0.00 | 0.00 | 0.00 | 36 | 1013.7 |
| 20260505000408 | 78 | 202 | 0.0 | 5.0 | 0.00 | 0.00 | 0.00 | 34 | 1013.5 |
| 20260504235904 | 78 | 242 | 0.0 | 2.0 | 0.00 | 0.00 | 0.00 | 40 | 1013.6 |
| 20260504235401 | 77 | 116 | 2.0 | 3.0 | 0.00 | 0.00 | 0.00 | 36 | 1013.9 |
| 20260504234857 | 77 | 255 | 3.0 | 6.0 | 0.00 | 0.00 | 0.00 | 35 | 1013.9 |
| 20260504234355 | 77 | 305 | 0.0 | 7.0 | 0.00 | 0.00 | 0.00 | 36 | 1013.9 |
| 20260504233851 | 77 | 244 | 3.0 | 5.0 | 0.00 | 0.00 | 0.00 | 38 | 1013.8 |
| 20260504233347 | 78 | 269 | 0.0 | 3.0 | 0.00 | 0.00 | 0.00 | 37 | 1014.1 |
| 20260504232844 | 78 | 288 | 0.0 | 3.0 | 0.00 | 0.00 | 0.00 | 38 | 1013.9 |
| 20260504232341 | 77 | 194 | 2.0 | 4.0 | 0.00 | 0.00 | 0.00 | 39 | 1013.9 |
| 20260504231838 | 77 | 89 | 0.0 | 3.0 | 0.00 | 0.00 | 0.00 | 37 | 1014.0 |
| 20260504231334 | 77 | 316 | 4.0 | 5.0 | 0.00 | 0.00 | 0.00 | 37 | 1013.7 |
| 20260504230830 | 78 | 237 | 1.0 | 3.0 | 0.00 | 0.00 | 0.00 | 37 | 1013.9 |
| 20260504230329 | 78 | 67 | 2.0 | 4.0 | 0.00 | 0.00 | 0.00 | 36 | 1013.8 |
| 20260504225827 | 78 | 285 | 0.0 | 2.0 | 0.00 | 0.00 | 0.00 | 38 | 1013.7 |
| 20260504225323 | 78 | 257 | 1.0 | 3.0 | 0.00 | 0.00 | 0.00 | 39 | 1013.8 |
| 20260504224821 | 77 | 40 | 1.0 | 5.0 | 0.00 | 0.00 | 0.00 | 39 | 1013.7 |
| 20260504224317 | 77 | 313 | 5.0 | 5.0 | 0.00 | 0.00 | 0.00 | 40 | 1013.8 |
| 20260504223814 | 77 | 9 | 2.0 | 4.0 | 0.00 | 0.00 | 0.00 | 40 | 1014.0 |
| 20260504223309 | 77 | 309 | 3.0 | 6.0 | 0.00 | 0.00 | 0.00 | 40 | 1013.8 |
| 20260504222807 | 77 | 350 | 5.0 | 5.0 | 0.00 | 0.00 | 0.00 | 40 | 1014.2 |
| 20260504222304 | 76 | 334 | 8.0 | 8.0 | 0.00 | 0.00 | 0.00 | 41 | 1014.2 |